Telluride, CO

4:34 AM MST on November 20, 2019 (GMT -0700)
Telluride Regional

Weather History for KTEX - September, 2019

Change the Weather History Date:

Thursday, September 19, 2019

  Actual Average Record
Temperature  
Mean Temperature 60 °F -  
Max Temperature 66 °F 59 °F 78 °F (2010)
Min Temperature 53 °F 40 °F 26 °F (1996)
Degree Days  
Heating Degree Days 6    
Growing Degree Days 10 (Base 50)    
Moisture  
Dew Point 34 °F    
Average Humidity 40    
Maximum Humidity 58    
Minimum Humidity 26    
Precipitation  
Precipitation 0.00 in - - ()
Sea Level Pressure  
Sea Level Pressure 30.26 in    
Wind  
Wind Speed 7 mph (SE)    
Max Wind Speed 22 mph    
Max Gust Speed 32 mph    
Visibility 10 miles    
Events Rain , Thunderstorm    
Averages and records for this station are not official NWS values.
T = Trace of Precipitation, MM = Missing Value Source: NWS Daily Summary

Daily Weather History Graph

Daily Weather History Graph

Search for Another Location

Airport or City:

Astronomy

Sep. 19, 2019 Rise Set
Actual Time 6:56 AM MDT 7:13 PM MDT
Civil Twilight 6:30 AM MDT 7:39 PM MDT
Nautical Twilight 5:59 AM MDT 8:10 PM MDT
Astronomical Twilight 5:28 AM MDT 8:41 PM MDT
Moon 10:29 PM MDT (9/19) 11:58 AM MDT (9/19)
Length of Visible Light 13h 09m
Length of Day
12h 16m
Waning Gibbous, 74% of the Moon is Illuminated
Sep 19
Waning Gibbous
Sep 21
Last Quarter
Sep 28
New
Oct 5
First Quarter
Oct 13
Full

Hourly Weather History & Observations

Time (MDT) Temp. Dew Point Humidity Pressure Visibility Wind Dir Wind Speed Gust Speed Precip Events Conditions
12:15 AM 59.0 °F 33.8 °F 39% 30.32 in 10.0 mi ESE 13.8 mph 18.4 mph N/A   Clear
12:35 AM 57.2 °F 33.8 °F 41% 30.32 in 10.0 mi SSE 9.2 mph - N/A   Clear
12:55 AM 59.0 °F 33.8 °F 39% 30.32 in 10.0 mi Calm Calm - N/A   Scattered Clouds
1:15 AM 57.2 °F 33.8 °F 41% 30.32 in 10.0 mi Calm Calm - N/A   Scattered Clouds
1:35 AM 55.4 °F 33.8 °F 44% 30.32 in 10.0 mi Calm Calm - N/A   Clear
1:55 AM 53.6 °F 33.8 °F 47% 30.32 in 10.0 mi NE 3.5 mph - N/A   Clear
2:15 AM 55.4 °F 33.8 °F 44% 30.32 in 10.0 mi Calm Calm - N/A   Scattered Clouds
2:35 AM 55.4 °F 32.0 °F 41% 30.32 in 10.0 mi Calm Calm - N/A   Scattered Clouds
2:55 AM 55.4 °F 32.0 °F 41% 30.32 in 10.0 mi Calm Calm - N/A   Mostly Cloudy
3:15 AM 55.4 °F 33.8 °F 44% 30.32 in 10.0 mi SE 6.9 mph - N/A   Overcast
3:35 AM 55.4 °F 32.0 °F 41% 30.32 in 10.0 mi Calm Calm - N/A   Mostly Cloudy
3:55 AM 55.4 °F 32.0 °F 41% 30.31 in 10.0 mi Calm Calm - N/A   Scattered Clouds
4:35 AM 57.2 °F 32.0 °F 38% 30.31 in 10.0 mi SSE 9.2 mph - N/A   Scattered Clouds
4:55 AM 55.4 °F 33.8 °F 44% 30.32 in 10.0 mi SE 6.9 mph - N/A   Scattered Clouds
5:15 AM 55.4 °F 33.8 °F 44% 30.32 in 10.0 mi ESE 9.2 mph - N/A   Scattered Clouds
5:35 AM 55.4 °F 33.8 °F 44% 30.32 in 10.0 mi ESE 6.9 mph 16.1 mph N/A   Scattered Clouds
5:55 AM 53.6 °F 33.8 °F 47% 30.32 in 10.0 mi East 8.1 mph - N/A   Scattered Clouds
6:15 AM 53.6 °F 33.8 °F 47% 30.32 in 10.0 mi ESE 12.7 mph - N/A   Scattered Clouds
6:35 AM 53.6 °F 33.8 °F 47% 30.32 in 10.0 mi ESE 12.7 mph - N/A   Scattered Clouds
6:55 AM 53.6 °F 33.8 °F 47% 30.31 in 10.0 mi SSE 13.8 mph 19.6 mph N/A   Scattered Clouds
7:15 AM 55.4 °F 33.8 °F 44% 30.32 in 10.0 mi SE 9.2 mph 17.3 mph N/A   Scattered Clouds
7:35 AM 55.4 °F 33.8 °F 44% 30.31 in 10.0 mi SE 12.7 mph - N/A   Scattered Clouds
7:55 AM 55.4 °F 33.8 °F 44% 30.32 in 10.0 mi SSE 10.4 mph 18.4 mph N/A   Scattered Clouds
8:15 AM 55.4 °F 33.8 °F 44% 30.32 in 10.0 mi ESE 11.5 mph - N/A   Mostly Cloudy
8:35 AM 57.2 °F 32.0 °F 38% 30.32 in 10.0 mi ESE 10.4 mph 25.3 mph N/A   Scattered Clouds
8:55 AM 59.0 °F 32.0 °F 36% 30.32 in 10.0 mi ESE 13.8 mph 17.3 mph N/A   Scattered Clouds
9:15 AM 60.8 °F 32.0 °F 34% 30.33 in 10.0 mi SE 10.4 mph 19.6 mph N/A   Scattered Clouds
9:35 AM 60.8 °F 32.0 °F 34% 30.33 in 10.0 mi SE 12.7 mph 21.9 mph N/A   Mostly Cloudy
9:55 AM 60.8 °F 32.0 °F 34% 30.33 in 10.0 mi SSE 13.8 mph 25.3 mph N/A   Mostly Cloudy
10:15 AM 62.6 °F 32.0 °F 32% 30.33 in 10.0 mi SSE 9.2 mph - N/A   Mostly Cloudy
10:35 AM 62.6 °F 32.0 °F 32% 30.32 in 10.0 mi ESE 9.2 mph 18.4 mph N/A   Overcast
10:55 AM 62.6 °F 32.0 °F 32% 30.32 in 10.0 mi ESE 5.8 mph - N/A   Overcast
11:15 AM 62.6 °F 32.0 °F 32% 30.31 in 10.0 mi SSW 3.5 mph - N/A   Overcast
11:35 AM 64.4 °F 32.0 °F 30% 30.30 in 10.0 mi West 6.9 mph - N/A   Overcast
11:55 AM 62.6 °F 32.0 °F 32% 30.29 in 10.0 mi WSW 4.6 mph - N/A   Mostly Cloudy
12:15 PM 64.4 °F 30.2 °F 28% 30.28 in 10.0 mi Calm Calm - N/A   Mostly Cloudy
12:35 PM 64.4 °F 32.0 °F 30% 30.28 in 10.0 mi SW 8.1 mph - N/A   Mostly Cloudy
12:55 PM 64.4 °F 30.2 °F 28% 30.26 in 10.0 mi South 13.8 mph 24.2 mph N/A   Scattered Clouds
1:15 PM 66.2 °F 30.2 °F 26% 30.26 in 10.0 mi SSE 5.8 mph - N/A   Scattered Clouds
1:35 PM 64.4 °F 30.2 °F 28% 30.25 in 10.0 mi SE 15.0 mph 31.1 mph N/A   Scattered Clouds
1:55 PM 64.4 °F 30.2 °F 28% 30.25 in 10.0 mi South 8.1 mph 23.0 mph N/A   Scattered Clouds
2:15 PM 64.4 °F 32.0 °F 30% 30.25 in 10.0 mi South 16.1 mph 26.5 mph N/A   Mostly Cloudy
2:35 PM 62.6 °F 32.0 °F 32% 30.25 in 10.0 mi SSE 11.5 mph 25.3 mph N/A   Overcast
2:55 PM 64.4 °F 32.0 °F 30% 30.23 in 10.0 mi SE 8.1 mph 24.2 mph N/A   Mostly Cloudy
3:15 PM 64.4 °F 32.0 °F 30% 30.22 in 10.0 mi SSE 15.0 mph 23.0 mph N/A   Mostly Cloudy
3:35 PM 64.4 °F 32.0 °F 30% 30.20 in 10.0 mi SSE 21.9 mph 32.2 mph N/A   Scattered Clouds
3:55 PM 62.6 °F 32.0 °F 32% 30.22 in 10.0 mi Calm Calm - N/A Rain Light Rain
4:15 PM 62.6 °F 32.0 °F 32% 30.22 in 10.0 mi SSW 5.8 mph 20.7 mph N/A Thunderstorm Overcast
4:35 PM 59.0 °F 35.6 °F 42% 30.24 in 10.0 mi SW 15.0 mph 32.2 mph N/A Rain Light Rain
4:55 PM 55.4 °F 41.0 °F 58% 30.22 in 10.0 mi Calm Calm - N/A   Mostly Cloudy
5:15 PM 59.0 °F 39.2 °F 48% 30.21 in 10.0 mi Calm Calm - N/A   Clear
5:35 PM 60.8 °F 37.4 °F 42% 30.20 in 10.0 mi Calm Calm - N/A Rain Light Rain
5:55 PM 62.6 °F 33.8 °F 34% 30.19 in 10.0 mi Calm Calm - N/A   Scattered Clouds
6:15 PM 62.6 °F 35.6 °F 37% 30.19 in 10.0 mi ESE 3.5 mph - N/A   Mostly Cloudy
6:35 PM 60.8 °F 33.8 °F 36% 30.18 in 10.0 mi ESE 8.1 mph 18.4 mph N/A   Mostly Cloudy
6:55 PM 60.8 °F 33.8 °F 36% 30.18 in 10.0 mi ESE 4.6 mph - N/A   Scattered Clouds
7:15 PM 60.8 °F 33.8 °F 36% 30.18 in 10.0 mi SE 6.9 mph - N/A Thunderstorm Mostly Cloudy
7:35 PM 59.0 °F 35.6 °F 42% 30.19 in 10.0 mi East 9.2 mph 17.3 mph N/A Thunderstorm Thunderstorm
7:55 PM 59.0 °F 37.4 °F 45% 30.20 in 10.0 mi SSE 17.3 mph 26.5 mph N/A Rain , Thunderstorm Thunderstorms and Rain
8:15 PM 55.4 °F 39.2 °F 54% 30.19 in 10.0 mi ESE 9.2 mph - N/A   Mostly Cloudy
8:35 PM 53.6 °F 39.2 °F 58% 30.19 in 10.0 mi SE 12.7 mph - N/A   Mostly Cloudy
8:55 PM 55.4 °F 37.4 °F 51% 30.21 in 10.0 mi SE 10.4 mph 16.1 mph N/A   Overcast
9:15 PM 55.4 °F 35.6 °F 47% 30.20 in 10.0 mi SSE 8.1 mph 19.6 mph N/A   Overcast
9:35 PM 55.4 °F 37.4 °F 51% 30.19 in 10.0 mi SE 9.2 mph - N/A   Mostly Cloudy
9:55 PM 53.6 °F 37.4 °F 54% 30.19 in 10.0 mi SE 4.6 mph - N/A Rain Light Rain
10:15 PM 53.6 °F 37.4 °F 54% 30.20 in 10.0 mi SSE 4.6 mph - N/A   Overcast
10:35 PM 55.4 °F 37.4 °F 51% 30.19 in 10.0 mi Calm Calm - N/A   Overcast
10:55 PM 55.4 °F 37.4 °F 51% 30.20 in 10.0 mi SSE 5.8 mph - N/A   Overcast
11:15 PM 55.4 °F 37.4 °F 51% 30.19 in 10.0 mi SE 5.8 mph - N/A   Overcast
11:35 PM 53.6 °F 37.4 °F 54% 30.19 in 10.0 mi Calm Calm - N/A   Mostly Cloudy
11:55 PM 53.6 °F 37.4 °F 54% 30.18 in 10.0 mi Calm Calm - N/A   Overcast